Terug naar catalogus

ONEWEB-0662

ActiefCommunicatiePO
NORAD 55822·PAYLOAD·🇬🇧 United Kingdom

Gelanceerd Mar 9, 2023 vanaf Cape Canaveral Space Force Station

Loading…

Volgende Passages (komende 24 uur)

TLE

VersSource: CelesTrak SupGP

Epoch: Sep 14, 2026, 06:38 UTC

1 55822C 23029AC  26257.27691389 -.00001121  00000+0 -30273-2 0  2575
2 55822  87.8893 271.9742 0002219  85.7216  21.3474 13.14504985    14

Volg ONEWEB-0662 in realtime met AllMySat

Download on the App Store